Location: *
(43.9103°S, 179.5332°W)
Time: 05:18:15
(UTC+00:00)

Daily predictions for brighter satellites

Satellite Brightness Start Highest point End
(mag) Time Altitude Azimuth Time Altitude Azimuth Time Altitude Azimuth
ADEOS Rocket 3.6 04:50:00 10° NNE 04:57:32 74° ESE 05:05:25 10° S
ATLAS 5 CENTAUR R/B 4.1 04:54:28 10° NNE 04:59:16 19° ENE 05:03:54 10° ESE
STARLINK-1308 3.8 04:55:28 10° NW 04:59:38 69° NE 05:03:51 10° ESE
STARLINK-1283 4.4 04:56:58 10° W 05:00:35 38° SSW 05:04:14 10° SE
Cosmos 1515 Rocket 3.9 04:56:07 10° SSW 05:00:37 76° W 05:05:05 10° N
STARLINK-1311 4.2 04:59:07 10° W 05:01:52 30° SSW 05:04:37 10° SE
STARLINK-60 3.1 04:59:09 10° SW 05:02:24 55° SSE 05:05:37 10° ENE
Meteor 1-31 Rocket 3.3 04:58:57 10° S 05:02:57 65° WSW 05:06:52 10° NNW
COSMO-SKYMED 1 2.6 05:00:51 10° NNE 05:05:13 74° ESE 05:09:39 10° S
Cosmos 1821 Rocket 4.2 04:59:11 10° N 05:05:20 80° W 05:11:36 10° S
STARLINK-61 3.9 05:02:31 10° NW 05:06:23 53° NE 05:10:17 10° ESE
Cosmos 2237 Rocket 3.6 05:02:29 10° NE 05:06:23 19° E 05:10:18 10° SE
CZ-4B R/B 4.2 05:03:15 10° SE 05:07:49 26° E 05:12:23 10° NNE
STARLINK-1316 4.2 05:05:05 10° W 05:07:59 31° SSW 05:10:54 10° SE
SL-16 R/B 4.0 05:04:06 10° WNW 05:08:53 27° SW 05:13:43 10° S
STARLINK-1257 4.2 05:06:01 10° W 05:08:55 31° SSW 05:11:50 10° SE
STARLINK-1304 3.7 05:05:23 10° NW 05:09:34 80° NE 05:13:48 10° ESE
Iridium 96 3.7 05:08:04 10° SSE 05:09:39 27° E 05:11:12 10° NNE
Cosmos 1633 2.6 05:06:01 10° N 05:09:39 90° NE 05:13:21 10° S
STARLINK-1256 4.3 05:06:55 10° W 05:09:48 30° SSW 05:12:43 10° SE
STARLINK-1213 4.3 05:07:50 10° W 05:10:43 30° SSW 05:13:37 10° SE
STARLINK-1263 4.3 05:08:45 10° W 05:11:38 30° SSW 05:14:31 10° SE
STARLINK-1286 3.7 05:07:37 10° NW 05:11:52 86° NE 05:16:08 10° SE
STARLINK-1259 4.3 05:09:39 10° W 05:12:31 29° SSW 05:15:24 10° SE
STARLINK-1265 4.3 05:10:13 10° W 05:13:02 29° SSW 05:15:53 10° SE
STARLINK-1285 4.3 05:10:34 10° W 05:13:26 29° SSW 05:16:18 10° SE
STARLINK-1268 4.3 05:11:13 10° W 05:14:03 29° SSW 05:16:54 10° SE
Cosmos 2228 Rocket 3.1 05:09:45 10° S 05:14:23 84° E 05:18:53 10° N
STARLINK-1296 4.4 05:12:25 10° W 05:15:16 29° SSW 05:18:08 10° SE
STARLINK-1260 4.4 05:13:20 10° W 05:16:10 28° SSW 05:19:00 10° SE
STARLINK-1318 4.4 05:14:16 10° W 05:17:06 28° SSW 05:19:56 10° SE
STARLINK-1275 4.4 05:15:08 10° W 05:17:57 28° SSW 05:20:46 10° SE
USA 116 4.5 05:13:46 10° NNE 05:18:27 53° ESE 05:23:35 10° S
STARLINK-1309 4.4 05:16:02 10° W 05:18:51 27° SSW 05:21:39 10° SE
STARLINK-1282 4.4 05:16:59 10° W 05:19:47 27° SSW 05:22:32 10° SE
Cosmos 1934 Rocket 4.1 05:13:34 10° N 05:19:55 82° E 05:26:24 10° S
STARLINK-62 4.2 05:18:08 10° W 05:21:07 33° SSW 05:23:57 11° SE
STARLINK-1029 3.9 05:19:27 10° W 05:22:29 39° SSW 05:25:14 12° SE
STARLINK-1298 4.5 05:19:42 10° W 05:22:29 26° SSW 05:25:07 11° SE
STARLINK-34 4.2 05:20:06 10° W 05:23:04 32° SSW 05:25:50 12° SE
STARLINK-1293 4.5 05:20:40 10° W 05:23:26 26° SSW 05:26:02 11° SE
Cosmos 158 Rocket 4.4 05:19:04 10° N 05:23:57 45° ENE 05:29:02 10° SSE
STARLINK-1299 3.9 05:21:30 10° WNW 05:25:48 69° SSW 05:29:38 13° SE
Cosmos 1743 Rocket 4.3 05:21:39 10° NNW 05:25:59 57° W 05:30:25 10° S
Cosmos 2333 Rocket 2.3 05:20:28 10° NNW 05:26:15 83° ENE 05:32:05 10° SSE
STARLINK-1306 3.8 05:22:00 10° WNW 05:26:16 75° SSW 05:30:00 13° SE
Cosmos 2112 Rocket 4.3 05:22:20 10° N 05:27:26 49° ENE 05:32:34 10° SSE
Cosmos 405 3.1 05:24:04 10° S 05:27:35 50° ESE 05:31:02 10° NNE
STARLINK-40 4.5 05:24:09 10° NNW 05:27:37 32° NE 05:30:18 15° ESE
STARLINK-44 4.4 05:25:42 10° NNW 05:29:11 32° NE 05:31:48 15° ESE
Okean O Rocket 2.3 05:25:19 10° SSE 05:29:26 35° E 05:33:30 10° NNE
STARLINK-1281 3.7 05:25:17 10° WNW 05:29:29 76° SSW 05:33:02 14° SE
H-2A R/B 3.5 05:26:18 10° SSE 05:29:51 33° E 05:33:24 10° NNE
Meteor 1-10 Rocket 4.2 05:24:47 10° S 05:30:28 68° ESE 05:36:10 10° NNE
Cosmos 1605 Rocket 4.0 05:24:38 10° N 05:30:46 65° E 05:36:55 10° SSE
FENGYUN 3A 4.3 05:25:26 10° S 05:30:51 61° WSW 05:36:11 10° NNW
Cosmos 2278 Rocket 2.6 05:25:30 10° SSW 05:30:54 41° ESE 05:36:15 10° NE
STARLINK-37 4.3 05:27:26 10° NNW 05:31:01 36° NE 05:33:38 16° ESE
STARLINK-29 3.3 05:27:59 10° SW 05:31:15 49° SSE 05:34:00 13° ENE
STARLINK-36 4.3 05:28:54 10° NNW 05:32:27 34° NE 05:34:57 17° ESE
Cosmos 1844 Rocket 4.0 05:27:05 10° SW 05:32:30 46° WNW 05:37:53 10° N
Sich 1 3.2 05:28:48 10° N 05:33:05 55° E 05:37:29 10° SSE
STARLINK-68 4.2 05:30:39 10° NNW 05:34:16 39° NE 05:36:47 18° ESE
STARLINK-1310 3.8 05:30:17 10° WNW 05:34:29 70° SSW 05:37:49 16° SE
STARLINK-63 4.2 05:32:14 10° NNW 05:35:52 39° NE 05:38:18 18° ESE
SMAP 4.0 05:33:00 10° SE 05:37:05 28° E 05:41:07 10° NNE
STARLINK-35 4.2 05:33:46 10° NNW 05:37:22 38° NE 05:39:43 19° ESE
STARLINK-51 4.1 05:35:26 10° NNW 05:39:04 40° NE 05:41:22 20° ESE
STARLINK-1319 3.9 05:35:17 10° WNW 05:39:28 66° SSW 05:42:36 17° SE
Cosmos 2322 4.4 05:34:39 10° NW 05:40:14 55° WSW 05:45:52 10° SSE
Cosmos 1346 Rocket 3.2 05:36:34 10° NNW 05:40:30 65° WSW 05:44:30 10° S
STARLINK-30 4.1 05:37:02 10° NNW 05:40:41 41° NE 05:42:56 20° ESE
STARLINK-48 4.5 05:37:21 10° W 05:41:05 39° SSW 05:43:52 16° SE
PSLV R/B 4.2 05:37:41 10° S 05:41:53 70° WSW 05:45:58 10° NNW
STARLINK-1028 4.5 05:38:04 10° NNW 05:41:53 35° NE 05:44:12 20° E
STARLINK-72 4.0 05:38:43 10° NNW 05:42:24 42° NE 05:44:35 21° ESE
Cosmos 2360 Rocket 3.8 05:38:27 10° WNW 05:43:28 31° SW 05:48:32 10° S
STARLINK-1277 4.0 05:40:17 10° WNW 05:44:26 61° SSW 05:47:22 19° SE
STARLINK-59 3.9 05:41:59 10° NNW 05:45:42 47° NE 05:47:48 23° ESE
STARLINK-1021 4.4 05:42:57 10° NNW 05:46:50 38° NE 05:48:58 22° E
Cosmos 2056 Rocket 3.7 05:41:55 10° S 05:47:09 48° ESE 05:52:14 10° NE
STARLINK-56 3.9 05:43:33 10° NNW 05:47:16 46° NE 05:49:17 24° ESE
ATLAS 2AS CENTAUR R/B 3.8 05:43:34 10° SSW 05:48:32 22° SSE 05:51:07 18° ESE
STARLINK-73 3.8 05:45:10 10° NNW 05:48:55 48° NE 05:50:52 25° ESE
STARLINK-1276 4.1 05:45:18 10° WNW 05:49:26 57° SSW 05:52:09 20° SE
STARLINK-38 3.8 05:46:48 10° NW 05:50:34 50° NE 05:52:27 26° ESE
SL-24 R/B 4.3 05:46:19 10° N 05:51:22 82° E 05:56:17 10° S
STARLINK-1019 4.2 05:47:51 10° NNW 05:51:48 42° NE 05:53:46 25° E
STARLINK-24 3.8 05:48:08 10° NW 05:52:06 56° NE 05:54:10 26° ESE
STARLINK-65 3.8 05:48:26 10° NW 05:52:13 51° NE 05:54:03 27° ESE
NOAA 6 4.0 05:47:32 10° SSE 05:52:46 80° ENE 05:57:55 10° N
CZ-2C R/B 3.9 05:53:39 20° ESE 05:53:39 20° ESE 05:57:21 10° SSE
STARLINK-53 3.7 05:50:18 10° NW 05:54:08 56° NE 05:55:57 28° ESE
STARLINK-1305 4.1 05:50:19 10° WNW 05:54:26 53° SSW 05:56:57 22° SE
MOS 1-B 4.5 05:48:44 10° SSE 05:54:39 82° WSW 06:00:28 10° NNW
SJ-7 4.3 05:51:01 10° SSE 05:55:06 86° ENE 05:59:08 10° NNW
STARLINK-25 3.6 05:51:55 10° NW 05:55:34 52° NE 05:57:08 30° ESE
STARLINK-1012 4.1 05:52:44 10° NNW 05:56:45 46° NE 05:58:33 28° E
STARLINK-64 4.4 05:53:45 10° W 05:57:06 34° SSW 05:58:52 22° SSE
Cosmos 1818 3.7 05:51:54 10° NNW 05:57:10 57° ENE 06:00:42 21° SE
STARLINK-1278 4.4 05:54:06 10° W 05:58:16 46° SSW 06:00:43 22° SE
STARLINK-1262 4.2 05:55:21 10° WNW 05:59:26 50° SSW 06:01:44 24° SE
Cosmos 1666 Rocket 3.5 05:55:12 10° N 05:59:34 72° E 06:03:59 10° SSE
STARLINK-1280 4.4 05:55:57 10° W 06:00:07 45° SSW 06:02:29 23° SE
Shenzhou-11 Module 1.7 05:58:17 10° WNW 06:00:51 59° N 06:01:12 51° NE
Cosmos 1633 Rocket 3.1 05:57:18 10° N 06:01:42 62° E 06:06:10 10° SSE
H-2A R/B 4.3 05:58:41 10° S 06:02:21 29° WSW 06:05:53 10° NW
BREEZE-M DEB (TANK) 3.7 05:59:31 10° WSW 06:03:28 87° NNW 06:19:02 10° ENE
YAOGAN 6 3.2 06:03:04 34° ESE 06:03:33 35° E 06:06:58 10° NNE
ALOS 4.3 05:59:53 10° S 06:03:50 26° WSW 06:07:44 10° WNW
STARLINK-1300 4.3 06:00:20 10° WNW 06:04:24 47° SSW 06:06:29 25° SE
Centaur D AC-29 3.9 05:57:16 10° WNW 06:05:12 19° NNW 06:08:52 10° NNE
STARLINK-1026 3.8 06:02:35 10° NW 06:06:41 55° NE 06:08:07 35° E
Cosmos 2219 Rocket 3.0 06:01:14 10° NW 06:06:47 52° WSW 06:12:25 10° SSE
STARLINK-52 2.9 06:04:09 10° SW 06:07:27 86° SE 06:08:30 40° ENE
Cosmos 2100 Rocket 4.1 06:01:36 10° NNE 06:07:33 50° E 06:13:32 10° SSE
Cosmos 1680 Rocket 3.9 06:02:57 10° NNW 06:08:13 65° WSW 06:13:32 10° SSE
STARLINK-50 3.5 06:04:11 10° NW 06:08:14 70° NE 06:09:41 38° ESE
STARLINK-1295 4.4 06:05:24 10° W 06:09:27 44° SSW 06:11:18 27° SSE
STARLINK-1338 4.0 06:06:27 10° SW 06:09:51 35° SSE 06:10:05 35° SSE
STARLINK-1013 3.7 06:07:29 10° NW 06:11:36 60° NE 06:12:52 40° E
FALCON 9 DEB 3.1 06:08:45 10° SW 06:12:17 66° SSE 06:12:55 52° E
STARLINK-1287 4.5 06:10:24 10° W 06:14:25 42° SSW 06:16:03 29° SSE
STARLINK-1371 3.9 06:11:53 10° SW 06:15:21 38° SSE 06:15:21 38° SSE
STARLINK-1009 3.7 06:12:25 10° NW 06:16:34 66° NE 06:17:39 46° E
Cosmos 1452 Rocket 4.1 06:12:41 10° S 06:17:29 33° ESE 06:17:29 33° ESE
Cosmos 1153 Rocket 4.5 06:11:45 10° N 06:17:56 86° W 06:24:11 10° S
STARLINK-1341 3.9 06:14:37 10° SW 06:18:02 39° SSE 06:18:02 39° SSE
SL-4 R/B 3.6 06:16:26 10° WSW 06:19:48 31° NW 06:23:23 10° NNE
STARLINK-1374 3.9 06:17:11 10° SW 06:20:30 40° SSE 06:20:30 40° SSE
Cosmos 1420 Rocket 4.2 06:15:45 10° S 06:21:00 50° ESE 06:24:07 23° NE
STARLINK-1015 3.6 06:17:22 10° NW 06:21:33 71° NE 06:22:26 52° ESE
Cosmos 1980 3.6 06:16:02 10° NNW 06:21:44 83° ENE 06:25:38 22° SSE
CZ-4C R/B 4.4 06:19:32 10° SSW 06:22:16 13° S 06:24:38 10° SSE
STARLINK-1339 3.9 06:19:55 10° SW 06:23:09 41° S 06:23:09 41° S
Cosmos 2061 Rocket 4.3 06:18:30 10° NNE 06:24:23 43° E 06:28:12 21° SSE
Cosmos 1238 Rocket 2.9 06:20:08 10° N 06:24:43 81° W 06:27:18 21° S
STARLINK-1377 3.9 06:22:07 10° SW 06:25:11 41° S 06:25:11 41° S
Envisat 2.9 06:21:19 11° SSE 06:26:21 78° ENE 06:31:28 10° N
STARLINK-1016 3.5 06:22:20 10° NW 06:26:31 78° NE 06:27:13 60° ESE
STARLINK-1320 4.1 06:25:01 10° SW 06:27:09 33° SSW 06:27:09 33° SSW
STARLINK-1353 4.0 06:24:47 10° SW 06:27:46 41° S 06:27:46 41° S
STARLINK-1322 4.2 06:25:21 10° SW 06:27:28 33° SSW 06:27:28 33° SSW
STARLINK-1324 4.2 06:25:42 10° SW 06:27:48 33° SSW 06:27:48 33° SSW
STARLINK-1294 4.2 06:26:04 10° SW 06:28:05 32° SSW 06:28:05 32° SSW
Meteor 1-20 Rocket 4.3 06:23:41 10° N 06:29:15 54° E 06:32:29 25° SSE
STARLINK-1261 4.2 06:26:22 10° SW 06:28:27 32° SSW 06:28:27 32° SSW
STARLINK-1325 4.2 06:26:41 10° SW 06:28:45 32° SSW 06:28:45 32° SSW
Cosmos 1812 4.3 06:26:11 10° SSW 06:29:49 36° W 06:33:23 10° NNW
STARLINK-1333 4.2 06:27:05 10° SW 06:29:07 32° SSW 06:29:07 32° SSW
Feng Yun 1-1 Rocket 4.2 06:27:58 32° SE 06:30:19 54° E 06:35:39 10° N
NOSS 0 Rocket 4.1 06:24:15 10° NNW 06:30:30 75° WSW 06:35:22 18° SSE
STARLINK-1334 4.2 06:27:23 10° SW 06:29:26 32° SSW 06:29:26 32° SSW
STARLINK-1326 4.2 06:27:44 10° SW 06:29:45 32° SSW 06:29:45 32° SSW
Cosmos 2297 4.3 06:25:42 10° S 06:30:33 36° SE 06:30:33 36° SE
STARLINK-1323 4.3 06:28:02 10° SW 06:30:04 32° SSW 06:30:04 32° SSW
STARLINK-1008 3.5 06:27:18 10° NW 06:31:30 84° NE 06:32:01 68° ESE
STARLINK-1375 4.0 06:27:55 10° SW 06:30:53 42° S 06:30:53 42° S
STARLINK-1349 4.3 06:28:25 10° SW 06:30:25 32° SSW 06:30:25 32° SSW
STARLINK-1336 4.3 06:28:44 10° SW 06:30:43 31° SSW 06:30:43 31° SSW
STARLINK-1331 4.3 06:29:06 10° SW 06:31:05 31° SSW 06:31:05 31° SSW
STARLINK-1344 4.3 06:29:27 10° SW 06:31:25 31° SSW 06:31:25 31° SSW
STARLINK-1343 4.3 06:29:44 10° SW 06:31:42 31° SSW 06:31:42 31° SSW
STARLINK-1346 4.4 06:30:09 10° SW 06:32:01 30° SSW 06:32:01 30° SSW
STARLINK-81 3.3 06:29:23 10° WNW 06:33:17 80° SW 06:33:34 74° SSE
Helios 1A Rocket 2.7 06:33:10 67° ESE 06:33:29 71° ENE 06:37:31 10° N
STARLINK-1328 4.4 06:30:25 10° SW 06:32:21 31° SSW 06:32:21 31° SSW
STARLINK-1350 4.1 06:30:11 10° SW 06:33:00 40° SSW 06:33:00 40° SSW
STARLINK-1354 4.4 06:30:44 10° SW 06:32:40 31° SSW 06:32:40 31° SSW
STARLINK-1347 4.4 06:31:06 10° SW 06:33:01 30° SSW 06:33:01 30° SSW
STARLINK-1357 4.4 06:31:26 10° SW 06:33:20 30° SSW 06:33:20 30° SSW
Cosmos 1461 3.1 06:30:43 10° SW 06:34:39 63° WNW 06:36:32 28° NNE
Cosmos 2016 Rocket 4.1 06:28:49 10° NNE 06:34:52 52° E 06:39:15 20° SSE
STARLINK-54 3.4 06:31:02 10° WNW 06:34:56 72° SSW 06:35:11 69° S
STARLINK-1335 4.4 06:31:50 10° SW 06:33:42 30° SSW 06:33:42 30° SSW
STARLINK-1327 4.4 06:32:06 10° SW 06:33:58 30° SSW 06:33:58 30° SSW
STARLINK-1340 4.4 06:32:26 10° SW 06:34:18 30° SSW 06:34:18 30° SSW
STARLINK-1356 4.5 06:32:47 10° SW 06:34:38 29° SSW 06:34:38 29° SSW
STARLINK-1345 4.5 06:33:06 10° SW 06:34:57 29° SSW 06:34:57 29° SSW
STARLINK-77 3.4 06:32:27 10° WNW 06:36:22 76° SSW 06:36:31 74° S
Meteor 1-27 Rocket 4.5 06:30:40 10° SSW 06:36:29 58° W 06:42:17 10° N
STARLINK-1352 4.2 06:32:55 10° SW 06:35:37 39° SSW 06:35:37 39° SSW
STARLINK-1014 3.5 06:32:16 10° NW 06:36:31 90° S 06:36:51 75° SE
STARLINK-1355 4.5 06:33:26 10° SW 06:35:16 29° SW 06:35:16 29° SW
Cosmos 2173 Rocket 3.9 06:30:23 10° N 06:36:40 79° E 06:42:56 10° S
USA 234 4.3 06:34:22 22° SSE 06:37:47 35° SSW 06:43:37 10° WSW
COSMOS 2428 4.1 06:32:51 10° WNW 06:38:05 35° SW 06:43:22 10° S
STARLINK-1368 4.2 06:35:41 10° SW 06:38:17 38° SSW 06:38:17 38° SSW
STARLINK-1010 3.6 06:35:48 10° WNW 06:40:05 81° SW 06:40:25 74° SSE
Lacrosse 5 rocket 2.0 06:36:46 10° NNW 06:40:18 44° NNE 06:40:18 44° NNE
STARLINK-79 3.5 06:37:22 10° WNW 06:41:14 70° SW 06:41:14 70° SW
STARLINK-1025 3.5 06:37:16 10° WNW 06:41:29 84° SSW 06:41:36 82° S
DMSP B5D2-2 4.5 06:42:44 43° SSE 06:42:44 43° SSE 06:46:45 10° S
STARLINK-1369 4.3 06:38:26 10° SW 06:40:57 37° SSW 06:40:57 37° SSW
STARLINK-78 3.6 06:39:00 10° WNW 06:42:46 67° SW 06:42:46 67° SW
ATLAS 5 CENTAUR R/B 2.6 06:36:12 10° NNW 06:43:26 87° ENE 06:46:25 37° SE
Cosmos 1459 Rocket 3.9 06:37:34 10° N 06:43:48 87° E 06:50:14 10° S
STARLINK-57 3.7 06:40:46 10° WNW 06:44:29 62° SW 06:44:29 62° SW
STARLINK-1372 4.4 06:41:14 10° SW 06:43:39 36° SSW 06:43:39 36° SSW
STARLINK-49 3.8 06:42:19 10° WNW 06:45:57 62° SW 06:45:57 62° SW
STARLINK-1017 3.6 06:42:13 10° WNW 06:46:20 77° SW 06:46:20 77° SW
STARLINK-27 3.8 06:43:54 10° WNW 06:47:26 60° WSW 06:47:26 60° WSW
SL-24 R/B - RUBIN 2 3.6 06:43:22 10° NNW 06:48:23 74° NE 06:48:23 74° NE
CZ-4B R/B 4.2 06:43:19 10° S 06:48:32 46° WSW 06:53:48 10° NW
Cosmos 1470 Rocket 3.7 06:44:16 10° NNW 06:48:48 75° W 06:50:24 40° S
Cosmos 371 Rocket 4.0 06:44:18 10° SSW 06:47:37 40° S 06:47:37 40° S
STARLINK-74 3.9 06:45:33 10° WNW 06:49:01 57° WSW 06:49:01 57° WSW
Cosmos 2237 Rocket 2.5 06:44:14 10° NW 06:49:52 65° WSW 06:52:55 28° SSE
STARLINK-39 4.0 06:47:11 10° WNW 06:50:34 55° WSW 06:50:34 55° WSW
STARLINK-1023 3.8 06:47:13 10° WNW 06:51:07 69° WSW 06:51:07 69° WSW
Cosmos 1943 Rocket 4.0 06:47:18 10° S 06:48:59 17° S 06:48:59 17° S
CORIOLIS 4.3 06:47:23 15° S 06:51:58 77° WSW 06:57:24 10° NNW
STARLINK-31 4.1 06:48:50 10° WNW 06:52:08 52° WSW 06:52:08 52° WSW
Cosmos 2369 Rocket 4.2 06:49:16 10° S 06:50:30 14° S 06:50:30 14° S
STARLINK-69 4.3 06:50:40 10° WNW 06:53:53 47° WSW 06:53:53 47° WSW
STARLINK-21 4.3 06:52:08 10° WNW 06:55:17 47° WSW 06:55:17 47° WSW
STARLINK-1007 4.1 06:52:14 10° WNW 06:55:56 61° WSW 06:55:56 61° WSW
NOAA 12 4.3 06:53:41 21° S 06:57:15 72° WSW 07:02:30 10° NNW
ATLAS CENTAUR R/B 4.0 06:54:06 10° S 06:54:46 13° S 06:54:46 13° S
STARLINK-45 4.5 06:54:01 10° WNW 06:57:06 43° WSW 06:57:06 43° WSW
BREEZE-M DEB (TANK) 4.2 06:41:56 10° NW 06:58:36 62° NNE 06:59:38 55° ENE
STARLINK-1048 4.3 06:57:14 10° WNW 07:00:43 53° WSW 07:00:43 53° WSW
Cosmos 1441 Rocket 4.4 06:58:37 10° NNW 07:01:16 39° NW 07:01:16 39° NW
SL-16 R/B 2.4 06:59:48 10° NNW 07:04:24 55° NNE 07:04:24 55° NNE
Okean O Rocket 3.8 07:01:58 10° SSW 07:05:36 25° WSW 07:09:14 10° WNW
IRS-1C Rocket 4.2 07:09:07 53° S 07:10:19 73° WSW 07:15:35 10° NNW
Cosmos 1802 Rocket 4.2 07:04:06 10° NNW 07:10:33 73° W 07:17:04 10° S
Cosmos 2333 Rocket 4.5 07:07:10 10° W 07:11:16 19° SW 07:15:23 10° S
BREEZE M DEB (TANK) 4.0 06:48:17 10° WSW 07:11:53 76° SSE 07:13:12 61° ESE
Cosmos 1725 Rocket 3.9 07:06:50 10° N 07:13:07 83° E 07:13:48 72° SSE
NOSS 3-4 (A) 4.0 07:07:03 10° SSW 07:13:17 51° SSE 07:13:17 51° SSE
NOSS 3-4 (C) 4.0 07:07:09 10° SSW 07:13:20 50° SSE 07:13:20 50° SSE
Cosmos 2278 Rocket 3.9 07:09:51 10° SW 07:14:50 32° WNW 07:19:47 10° NNW
Cosmos 967 Rocket 4.4 07:08:49 10° NW 07:15:05 84° WSW 07:15:39 75° S
Cosmos 2346 Rocket 4.4 07:10:09 10° S 07:16:20 84° W 07:22:25 10° N
SL-08 R/B 4.4 07:17:47 10° N 07:23:57 80° W 07:24:23 75° SW
CZ-2C R/B 3.7 07:35:10 40° SW 07:35:10 40° SW 07:38:41 10° SSW
Tsikada Rocket 4.5 07:28:39 10° S 07:33:32 53° SSW 07:33:32 53° SSW
ATLAS 2AS CENTAUR R/B 3.2 07:33:51 10° SSW 07:38:34 49° SSW 07:38:34 49° SSW
ATLAS 5 CENTAUR R/B 4.3 08:23:03 10° W 08:27:59 27° SW 08:27:59 27° SW
